Location: Carabito
(9.8355°N, 67.9249°W)
Time: 00:18:05
(UTC+00:00)

ARIANE 5 R/B - Pass Details

Date: 23 May 2024
Orbit: 286 x 30650 km, 1.4° (Epoch: 15 June)

Event Time Altitude Azimuth Distance (km) Brightness Sun altitude
Rises 01:50:16 0° 266° (W) 17,783 10.0 -40.6°
Reaches altitude 10° 02:12:44 10° 265° (W) 21,060 10.1 -44.8°
Drops below altitude 10° 05:48:19 10° 267° (W) 35,082 10.6 -53.7°
Maximum altitude 09:36:03 47° 197° (SSW) 1,876 4.2 -8.6°
Sets 09:41:59 0° 113° (ESE) 2,727 6.1 -7.2°
